#timestamp,LO_Frequency,Hit 
1503226815.1,286047033.9,N
1503226816.0,286047033.9,N
1503226835.8,286047037.2,N
1503226855.6,286047032.3,N
1503226875.5,286047056.8,P
1503226895.3,286047020.8,N
1503226915.1,286047006.7,N
1503226935.9,286047008.8,N
1503226955.7,286047005.3,N
1503226975.5,286046995.6,N
1503226995.4,286046989.3,N
1503227015.2,286047003.3,N
1503227035.0,286047001.5,N
1503227035.9,286047001.5,N
1503227055.8,286047000.4,N
1503227075.6,286046996.5,N
1503227095.4,286046997.9,N
1503227115.3,286047000.8,N
1503227135.1,286047015.9,N
1503227136.0,286047015.9,N
1503227155.8,286047007.9,N
1503227175.7,286046994.2,N
1503227195.5,286046988.9,N
1503227215.3,286046993.5,N
1503227235.1,286046996.5,N
1503227255.9,286047015.1,N
1503227275.7,286046998.4,N
1503227295.5,286046997.9,N
1503227315.4,286046997.8,N
1503227335.2,286047015.3,N
1503227355.0,286047013.4,N
1503227355.9,286047013.4,N
1503227375.8,286047013.5,N
1503227395.6,286047008.3,N
1503227415.4,286047004.8,N
1503227435.3,286046991.5,N
1503227455.1,286046980.1,N
1503227456.0,286046980.1,N
1503227475.8,286046974.7,N
1503227495.7,286046971.9,N
1503227515.5,286046976.1,N
1503227535.3,286046989.0,N
1503227555.2,286046991.7,N
1503227575.9,286046982.5,N
1503227595.7,286046995.2,N
1503227615.5,286047002.6,N
1503227635.4,286047007.4,N
1503227655.2,286047005.4,N
1503227675.0,286047002.7,N
1503227675.9,286047002.7,N
1503227695.8,286046992.6,N
1503227715.6,286046991.1,N
1503227735.4,286047004.3,N
1503227755.3,286047006.1,N
1503227775.1,286047009.0,N
1503227776.0,286047009.0,N
1503227795.8,286047007.0,N
1503227815.7,286046994.5,N
1503227835.5,286046981.4,N
1503227855.3,286046980.1,N
1503227875.2,286046974.6,N
1503227895.9,286046973.2,N
1503227915.7,286046979.6,N
1503227935.5,286046980.2,N
1503227955.4,286046992.3,N
1503227975.2,286046993.8,N
1503227995.0,286046982.3,N
1503227995.9,286046982.3,N
1503228015.8,286046987.3,N
1503228035.6,286046997.6,N
1503228055.4,286047000.6,N
1503228075.3,286046993.3,N
1503228095.1,286046988.3,N
1503228096.0,286046988.3,N
1503228115.8,286046986.2,N
1503228135.7,286046994.5,N
1503228155.5,286046993.0,N
1503228175.3,286046986.9,N
1503228195.2,286046985.0,N
1503228215.9,286046973.2,N
1503228235.7,286046977.7,N
1503228255.5,286047001.0,N
1503228275.4,286046990.1,N
1503228295.2,286046985.3,N
1503228315.0,286046976.7,N
1503228315.9,286046976.7,N
1503228335.8,286046978.9,N
1503228355.6,286046986.4,N
1503228375.4,286046993.1,N
1503228395.3,286046983.1,N
1503228415.1,286046969.8,P
1503228435.8,286046998.9,N
1503228455.7,286047006.7,N
1503228475.5,286047011.4,N
1503228495.3,286047013.3,N
1503228515.2,286047015.6,N
1503228535.9,286047005.3,N
1503228555.7,286047001.6,N
1503228575.6,286047005.1,N
1503228595.4,286047020.2,N
1503228615.2,286047008.6,N
1503228635.1,286046999.2,N
1503228636.0,286046999.2,N
1503228655.8,286047004.9,N
1503228675.6,286046991.2,N
1503228695.4,286046980.2,N
1503228715.3,286046969.7,N
1503228735.1,286046963.8,N
1503228755.8,286046956.1,N
1503228775.7,286046958.4,N
1503228795.5,286046954.6,N
1503228815.3,286046970.7,N
1503228835.2,286046980.2,N
1503228855.9,286046995.1,N
1503228875.7,286046983.2,N
1503228895.6,286046966.2,N
1503228915.4,286046966.1,N
1503228935.2,286046957.8,N
1503228955.0,286046956.1,N
1503228956.0,286046956.1,N
1503228975.8,286046964.8,N
1503228995.6,286046979.9,N
1503229015.4,286046996.0,N
1503229035.3,286046995.5,N
1503229055.1,286046990.3,N
1503229075.8,286046998.6,N
1503229095.7,286046992.7,N
1503229115.5,286046976.3,N
1503229135.3,286046977.9,N
1503229155.2,286046965.8,N
1503229175.9,286046957.7,N
1503229195.7,286046961.5,N
1503229215.6,286046962.3,N
1503229235.4,286046960.5,N
1503229255.2,286046964.0,N
1503229275.1,286046958.0,P
1503229276.0,286046958.0,P
1503229295.8,286046987.4,N
1503229315.6,286046987.5,N
1503229335.5,286046989.9,N
1503229355.3,286046997.7,N
1503229375.1,286047002.2,N
1503229395.8,286046996.5,N
1503229415.7,286046994.8,N
1503229435.5,286046987.4,N
1503229455.3,286047007.9,N
1503229475.2,286047006.2,N
1503229495.9,286047004.8,N
1503229515.7,286047014.3,N
1503229535.6,286047013.8,N
1503229555.4,286047016.2,N
1503229575.2,286047023.3,N
1503229595.1,286047017.2,N
1503229596.0,286047017.2,N
1503229615.8,286047016.6,N
1503229635.6,286047018.3,N
1503229655.5,286047009.5,N
1503229675.3,286047006.5,N
1503229695.1,286047003.0,N
1503229715.8,286047014.4,N
1503229735.7,286047014.9,N
1503229755.5,286047018.0,N
1503229775.3,286047002.2,N
1503229795.2,286046991.8,N
1503229815.9,286046995.2,N
1503229835.7,286047001.2,N
1503229855.6,286047005.0,N
1503229875.4,286047016.1,N
1503229895.2,286047012.9,N
1503229915.1,286047034.2,P
1503229916.0,286047034.2,N
1503229935.8,286047022.4,N
1503229955.6,286047031.0,N
1503229975.5,286047030.0,N
1503229995.3,286047009.7,N
1503230015.1,286046997.5,N
1503230035.9,286046988.0,N
1503230055.7,286046991.6,N
1503230075.5,286046980.3,N
1503230095.3,286046978.1,N
1503230115.2,286046981.5,N
1503230135.0,286046982.5,N
1503230135.9,286046982.5,N
1503230155.7,286046988.3,N
1503230175.6,286046985.6,N
1503230195.4,286046984.7,N
1503230215.2,286046980.1,N
1503230235.1,286046976.6,N
1503230236.0,286046976.6,N
1503230255.8,286046982.6,N
1503230275.6,286046974.8,N
1503230295.5,286046966.4,N
1503230315.3,286046960.4,N
1503230335.1,286046948.5,N
1503230355.8,286046970.2,N
1503230375.7,286046978.7,N
1503230395.5,286046983.5,N
